Location: Poughquag
(41.6090°N, 73.6820°W)
Time: 14:58:12
(UTC-05:00)

Vanguard 1 - Pass Details

Date: 05 December 2023
Orbit: 653 x 3825 km, 34.3° (Epoch: 03 March)

Event Time Altitude Azimuth Distance (km) Brightness Sun altitude
Rises 13:57:58 0° 165° (SSE) 4,817 14.3 19.0°
Reaches altitude 10° 14:06:13 10° 127° (SE) 4,796 13.7 18.2°
Maximum altitude 14:07:44 10° 120° (ESE) 4,939 13.7 18.0°
Drops below altitude 10° 14:09:19 10° 114° (ESE) 5,127 13.7 17.8°
Sets 14:21:22 0° 81° (E) 7,203 14.1 16.5°
